Amendola, Italy

7:03 AM CEST on July 28, 2017 (GMT +0200)
Amendola Mil

Weather History for LIBA - November, 2012

Change the Weather History Date:

Wednesday, November 7, 2012

  Actual Average Record
Temperature  
Mean Temperature 54 °F -  
Max Temperature 59 °F 60 °F 73 °F (2013)
Min Temperature 50 °F 44 °F 33 °F (2002)
Degree Days  
Heating Degree Days 10    
Growing Degree Days 4 (Base 50)    
Moisture  
Dew Point 51 °F    
Average Humidity 86    
Maximum Humidity 100    
Minimum Humidity 63    
Precipitation  
Precipitation 0.08 in 0.07 in - ()
Sea Level Pressure  
Sea Level Pressure 30.15 in    
Wind  
Wind Speed 7 mph ()    
Max Wind Speed 17 mph    
Max Gust Speed -    
Visibility 5.6 miles    
Events Rain    
Averages and records for this station are not official NWS values.
T = Trace of Precipitation, MM = Missing Value Source: Averaged Metar Reports

Daily Weather History Graph

Daily Weather History Graph

Search for Another Location

Airport or City:

Trip Planner

Search our weather history database for the weather conditions in past years. The results will help you decide how hot, cold, wet, or windy it might be!

Date:

Astronomy

Nov. 07, 2012 Rise Set
Actual Time 6:36 AM CET 4:44 PM CET
Civil Twilight 6:07 AM CET 5:13 PM CET
Nautical Twilight 5:34 AM CET 5:46 PM CET
Astronomical Twilight 5:01 AM CET 6:19 PM CET
Moon No Moon Rise 12:49 PM CET (11/7)
Length of Visible Light 11h 06m
Length of Day
10h 08m
Last Quarter, 46% of the Moon is Illuminated
Nov 7
Last Quarter
Nov 13
New
Nov 20
First Quarter
Nov 28
Full
Dec 6
Last Quarter

Hourly Weather History & Observations

Time (CET) Temp. Dew Point Humidity Pressure Visibility Wind Dir Wind Speed Gust Speed Precip Events Conditions
5:55 AM 55.4 °F 55.4 °F 100% 30.06 in - NNE 5.8 mph - N/A   Clear
6:55 AM 55.4 °F 51.8 °F 88% 30.06 in - NW 5.8 mph - N/A   Clear
7:00 AM 56 °F 51 °F 79% 30.09 in 6 mi NW 5.8 mph - -   Mostly Cloudy
7:55 AM 53.6 °F 53.6 °F 100% 30.09 in - West 6.9 mph - N/A   Clear
8:55 AM 55.4 °F 53.6 °F 94% 30.12 in 6.2 mi West 12.7 mph - N/A   Partly Cloudy
9:55 AM 57.2 °F 51.8 °F 82% 30.12 in 6.2 mi West 9.2 mph - N/A   Scattered Clouds
10:00 AM 57 °F 53 °F 80% 30.14 in 6 mi West 9.2 mph - -   Partly Cloudy
10:55 AM 59.0 °F 50.0 °F 72% 30.12 in 6.2 mi WNW 17.3 mph - N/A   Mostly Cloudy
11:55 AM 59.0 °F 46.4 °F 63% 30.15 in 6.2 mi NNW 12.7 mph - N/A   Mostly Cloudy
12:55 PM 57.2 °F 51.8 °F 82% 30.15 in 3.1 mi NNW 10.4 mph - N/A Rain Light Rain
1:00 PM 57 °F 51 °F 74% 30.18 in 2 mi NNW 10.4 mph - - Rain Light Rain
1:55 PM 53.6 °F 53.6 °F 100% 30.15 in 5.0 mi WSW 8.1 mph - N/A Rain Light Rain
2:55 PM 53.6 °F 53.6 °F 100% 30.18 in 6.2 mi WSW 6.9 mph - N/A   Mostly Cloudy
3:55 PM 53.6 °F 50.0 °F 88% 30.18 in 6.2 mi West 8.1 mph - N/A   Scattered Clouds
4:00 PM 54 °F 51 °F 86% 30.21 in 6 mi West 8.1 mph - -   Partly Cloudy
4:55 PM 53.6 °F 50.0 °F 88% 30.18 in 6.2 mi WNW 5.8 mph - N/A   Mostly Cloudy
5:55 PM 53.6 °F 50.0 °F 88% 30.18 in 6.2 mi WNW 6.9 mph - N/A   Mostly Cloudy
6:55 PM 50.0 °F 46.4 °F 87% 30.27 in 6.2 mi West 10.4 mph - N/A   Scattered Clouds
7:00 PM 50 °F 47 °F 87% 30.28 in 6 mi West 10.4 mph - -   Partly Cloudy